HXMT (HUIYAN) (42758 NORAD) Tracking and Keplerian Element Data

This shows tracking and keplerian element data for the satellite.

Feedback or suggestion? Click here.




ElementValue
Catalog42758
NameHXMT (HUIYAN)
Epoch Orbit8273
Epoch Day349.01935809
Epoch Year2018
RAAN174.8015
Inclination43.0165
Eccentricity0.0009073
Argument of Perigee172.7179
Mean Anonmoly325.7642
Mean Motion15.0847186
Decay Rate8.5E-07
L11 42758U 17034A 18349.01935809 .00000085 00000-0 19130-4 0 9992
L22 42758 43.0165 174.8015 0009073 172.7179 325.7642 15.08471860 82735

Live tracking and technical data element details for HXMT (HUIYAN) (NORAD 42758). HXMT (HUIYAN) can be tracked NOW for your location showing map with azimuth and elevation plus other details from your city location.

Track the satellite on the map from your city or location and see movement details for azimuth, elevation, latitude, longitude, range, height, and movement on the map or in text.







IsCatalogInMostPopularTable: catalog: 42758, numindb: 112
Update: records affected: 1



GetName: 42758 HXMT (HUIYAN)

Hit Count: updated at: Sat, 15 Dec 2018 13:57:14 GMT